[[{"header":{"parameterUnit":"m.s-1","parameterCategory":1,"la1":30.2991,"la2":30.254,"lo1":-89.0895,"lo2":-89.0444,"dy":0.0017,"dx":0.0017,"nx":28,"ny":28,"refTime":"2023-08-01T21:00:00:Z","depth":0,"parameterNumber":2,"parameterNumberName":"U-component_of_WINDS"},"data":[0,0,0,0,0,0,0,0,0,0,0,0,0,0,0,0,0,0,0,0,0,0,0,0,0,0,0,0,0,0,0,0,0,0,0,0,0,0,0,0,0,0,0,0,0,0,0,0,0,0,0,0,0,0,0,0,0,0,1.7385,1.7387,0,1.7575,1.7577,1.758,1.7636,1.7635,1.7634,1.7633,1.783,1.7836,1.7842,0,0,0,0,0,0,0,0,0,0,0,0,0,1.7072,1.7078,1.7385,1.7388,1.739,1.7575,1.7578,1.758,1.7636,1.7635,1.7634,1.7633,1.7828,1.7836,1.7843,0,0,0,0,0,0,0,0,0,0,0,0,0,1.723,1.708,1.7385,1.744,1.7447,1.7574,1.7578,1.7581,1.7637,1.7635,1.7634,1.7632,1.7826,1.7835,1.7844,1.7931,0,0,1.7872,1.7876,0,0,0,0,0,0,0,0,1.7221,1.7241,1.743,1.7437,1.7444,1.758,1.754,1.7698,1.7637,1.7565,1.7633,1.7631,1.7749,1.7764,1.7803,1.794,1.7948,1.7873,1.7879,1.7883,1.7885,0,0,0,0,0,0,0,1.721,1.7234,1.746,1.7432,1.7441,1.7456,1.7477,1.757,1.7663,1.7571,1.7575,1.7597,1.7752,1.7794,1.7808,1.7951,1.7873,1.7881,1.7887,1.789,1.8168,1.8169,0,0,0,0,0,0,1.7189,1.7224,1.7454,1.7466,1.7327,1.7463,1.7486,1.7538,1.7662,1.7679,1.7598,1.7599,1.7779,1.7797,1.7815,1.7924,1.7883,1.7891,1.7897,1.8166,1.8168,1.817,0,0,0,0,0,0,1.7182,1.7209,1.7447,1.7346,1.7378,1.747,1.7528,1.7543,1.7584,1.7682,1.7699,1.7623,1.7778,1.7802,1.7901,1.7931,1.7895,1.7904,1.8164,1.8167,1.8169,1.8142,0,0,0,0,0,0,1.7173,1.7206,1.724,1.7347,1.7383,1.7529,1.753,1.7548,1.76,1.7603,1.7711,1.7727,1.7779,1.7887,1.791,1.7943,1.7911,1.8161,1.8165,1.8168,1.814,1.8143,1.8146,0,0,0,0,0,1.7162,1.7226,1.7241,1.7269,1.7427,1.753,1.7551,1.7609,1.7602,1.7637,1.7699,1.7724,1.7924,1.7897,1.7923,1.796,1.816,1.8164,1.8168,1.8139,1.8143,1.8145,0,0,0,0,0,0,1.7121,1.7241,1.7259,1.736,1.7434,1.754,1.7585,1.7611,1.769,1.7689,1.7759,1.7783,1.7876,1.7928,1.7895,1.805,1.8043,1.8053,1.8012,1.8016,1.8019,1.8004,1.7919,0,0,0,0,0,1.7123,1.7197,1.7298,1.7377,1.7413,1.7492,1.754,1.7578,1.7658,1.769,1.7761,1.7838,1.7919,1.7971,1.805,1.8148,1.8172,1.8187,1.8189,1.8191,1.8198,1.8253,1.826,1.8184,1.8183,1.8183,0,0,1.713,1.7204,1.7247,1.737,1.7433,1.7507,1.7519,1.7598,1.7654,1.7703,1.78,1.7854,1.7945,1.8044,1.8091,1.809,1.8225,1.8196,1.8197,1.8203,1.8258,1.8265,1.8271,1.8186,1.8186,1.8185,0,0,1.7179,1.7243,1.7314,1.7376,1.747,1.7523,1.754,1.7641,1.7679,1.7777,1.7815,1.7883,1.8021,1.8084,1.8134,1.8206,1.8231,1.8231,1.8244,1.8296,1.8302,1.8308,1.8333,1.8341,1.8238,1.8238,1.8238,0,1.7174,1.7288,1.7348,1.7425,1.7478,1.7525,1.7598,1.7655,1.7771,1.7806,1.7804,1.7977,1.8042,1.8155,1.8172,1.8212,1.8233,1.8218,1.8296,1.8303,1.8309,1.8333,1.8342,1.8237,1.8237,1.8237,1.8237,0,1.7278,1.7356,1.7403,1.7512,1.757,1.7645,1.7716,1.7769,1.7801,1.7854,1.7953,1.8033,1.8128,1.8159,1.8192,1.8277,1.8273,1.8283,1.8277,1.8314,1.8338,1.8348,1.8236,1.8236,1.8236,1.8236,0,0,1.7306,1.7446,1.7462,1.7512,1.7619,1.7681,1.7757,1.785,1.7893,1.7971,1.8037,1.8152,1.8161,1.8218,1.8259,1.8305,1.8356,1.831,1.8313,1.8314,1.8452,1.8443,1.8453,1.8373,1.8375,1.8377,1.8444,0,1.7367,1.7505,1.7561,1.7673,1.7745,1.7791,1.7858,1.793,1.7981,1.8051,1.8108,1.8188,1.8195,1.8229,1.8277,1.8339,1.8384,1.8335,1.8435,1.8437,1.8409,1.8466,1.8457,1.8516,1.8454,1.8456,1.8457,0,1.7457,1.7534,1.7653,1.775,1.7783,1.7841,1.793,1.7996,1.808,1.8114,1.8177,1.8215,1.8297,1.8287,1.8401,1.8367,1.8411,1.8448,1.8451,1.8462,1.8448,1.8477,1.8537,1.8545,1.8472,1.8471,1.847,0,1.7464,1.7598,1.7686,1.7727,1.7843,1.7883,1.7933,1.8015,1.8067,1.8145,1.8179,1.8267,1.8314,1.8381,1.8442,1.8429,1.855,1.8545,1.858,1.8579,1.8603,1.86,1.867,1.8633,1.8633,1.8633,1.8633,0,1.7526,1.7596,1.769,1.7744,1.7824,1.7888,1.7966,1.8019,1.8092,1.8157,1.8203,1.8263,1.834,1.8411,1.8459,1.8545,1.8567,1.8597,1.8609,1.8592,1.8588,1.8621,1.8618,1.8635,1.8635,1.8634,1.8634,0,1.7546,1.7612,1.7711,1.7812,1.7839,1.7893,1.798,1.8034,1.8087,1.8169,1.8192,1.8276,1.8361,1.8429,1.854,1.8573,1.8663,1.8677,1.8635,1.864,1.8671,1.8667,1.8764,1.8779,1.8733,1.8733,1.8733,0,1.7581,1.7636,1.7742,1.7789,1.7838,1.7913,1.7965,1.8031,1.8084,1.8183,1.8225,1.8313,1.8387,1.8521,1.8592,1.8677,1.8693,1.8721,1.8706,1.8687,1.8692,1.8687,1.8693,1.8722,1.8722,1.8723,1.8723,0,1.7634,1.7664,1.7738,1.7823,1.7885,1.7955,1.8027,1.8063,1.8141,1.8199,1.8286,1.8343,1.8456,1.8543,1.8635,1.8688,1.8718,1.8727,1.8739,1.8722,1.8695,1.8709,1.8638,1.8724,1.8724,1.8724,1.8724,1.8724,1.7662,1.7713,1.7795,1.7876,1.7937,1.8002,1.8058,1.8117,1.8191,1.8287,1.8322,1.8411,1.8493,1.862,1.8673,1.8744,1.8746,1.8765,1.8769,1.8772,1.877,1.8684,1.8761,1.8761,1.8762,1.8762,1.8762,0,1.7717,1.7772,1.7846,1.7944,1.8007,1.803,1.811,1.8162,1.8239,1.8313,1.8384,1.8484,1.8568,1.8646,1.8734,1.8775,1.8792,1.8796,1.8793,1.8805,1.8763,1.8743,1.8782,1.8782,1.8782,1.8782,1.8782,1.8782,1.7753,1.7839,1.7878,1.7995,1.805,1.8137,1.8181,1.8241,1.83,1.8409,1.8479,1.8528,1.8604,1.8697,1.8776,1.8796,1.8826,1.8827,1.8851,1.8811,1.8808,1.8805,1.8786,1.8833,1.8833,1.8887,1.8887,1.8888]},{"header":{"parameterUnit":"m.s-1","parameterCategory":1,"la1":30.2991,"la2":30.254,"lo1":-89.0895,"lo2":-89.0444,"dy":0.0017,"dx":0.0017,"nx":28,"ny":28,"refTime":"2023-08-01T21:00:00:Z","depth":0,"parameterNumber":3,"parameterNumberName":"V-component_of_WINDS"},"data":[0,0,0,0,0,0,0,0,0,0,0,0,0,0,0,0,0,0,0,0,0,0,0,0,0,0,0,0,0,0,0,0,0,0,0,0,0,0,0,0,0,0,0,0,0,0,0,0,0,0,0,0,0,0,0,0,0,0,3.8553,3.8552,0,3.8454,3.8452,3.8451,3.8368,3.8367,3.8366,3.8365,3.8256,3.8254,3.8252,0,0,0,0,0,0,0,0,0,0,0,0,0,3.8664,3.8663,3.8553,3.8552,3.855,3.8454,3.8452,3.8451,3.8368,3.8367,3.8366,3.8365,3.8257,3.8255,3.8252,0,0,0,0,0,0,0,0,0,0,0,0,0,3.8595,3.8662,3.8553,3.8498,3.8492,3.8454,3.8452,3.8451,3.8368,3.8367,3.8366,3.8364,3.8258,3.8255,3.8252,3.8259,0,0,3.8242,3.8241,0,0,0,0,0,0,0,0,3.8599,3.8591,3.8507,3.8501,3.8495,3.8422,3.8452,3.8386,3.8369,3.8415,3.8365,3.8364,3.8312,3.8304,3.8288,3.8254,3.8249,3.8242,3.824,3.8239,3.8238,0,0,0,0,0,0,0,3.8604,3.8595,3.8513,3.8506,3.8498,3.8476,3.8464,3.8439,3.8372,3.8411,3.8405,3.8394,3.8308,3.8292,3.8285,3.8247,3.8242,3.8239,3.8237,3.8236,3.8213,3.8214,0,0,0,0,0,0,3.8619,3.86,3.8516,3.851,3.8545,3.8475,3.8462,3.8446,3.8372,3.8359,3.8396,3.8391,3.8298,3.8289,3.8281,3.8284,3.8239,3.8236,3.8234,3.8212,3.8214,3.8215,0,0,0,0,0,0,3.8621,3.8612,3.852,3.8553,3.854,3.8474,3.8457,3.8445,3.8428,3.8361,3.8347,3.8391,3.8296,3.8285,3.8265,3.8279,3.8234,3.8231,3.8211,3.8212,3.8214,3.8292,0,0,0,0,0,0,3.8625,3.8614,3.8617,3.8554,3.8539,3.8509,3.8458,3.8444,3.8424,3.8417,3.8353,3.8341,3.8294,3.8271,3.8262,3.8274,3.8229,3.8209,3.8211,3.8214,3.8287,3.8296,3.8303,0,0,0,0,0,3.8629,3.8641,3.8618,3.8608,3.8542,3.851,3.8501,3.8449,3.8426,3.8428,3.8384,3.8343,3.828,3.8269,3.8259,3.8271,3.8208,3.8211,3.8213,3.8284,3.8294,3.8303,0,0,0,0,0,0,3.8704,3.8632,3.8605,3.8597,3.8561,3.8496,3.8497,3.8461,3.8429,3.8423,3.8358,3.8344,3.8331,3.8298,3.8288,3.8273,3.8238,3.8239,3.8295,3.8304,3.8312,3.832,3.8226,0,0,0,0,0,3.8721,3.8703,3.8639,3.8639,3.8622,3.8563,3.8547,3.8511,3.8469,3.8452,3.8407,3.8366,3.8337,3.8319,3.8288,3.8283,3.8267,3.8285,3.8293,3.83,3.8301,3.8296,3.8303,3.8224,3.8224,3.8224,0,0,3.8753,3.8711,3.8703,3.8653,3.862,3.8601,3.855,3.8532,3.8517,3.8448,3.8428,3.8393,3.8343,3.8331,3.8323,3.8303,3.832,3.8304,3.831,3.8307,3.8299,3.8307,3.8314,3.8226,3.8226,3.8226,0,0,3.8802,3.8769,3.8765,3.8734,3.8687,3.8647,3.8647,3.8588,3.8563,3.8542,3.849,3.847,3.8421,3.8388,3.8364,3.8403,3.8363,3.8394,3.8435,3.843,3.8436,3.8441,3.8455,3.846,3.8396,3.8396,3.8396,0,3.8847,3.8819,3.8767,3.8753,3.8732,3.8672,3.8666,3.8638,3.8582,3.8568,3.8547,3.8485,3.8447,3.8426,3.8436,3.8419,3.8415,3.8401,3.844,3.8445,3.8449,3.846,3.8466,3.84,3.84,3.8399,3.8399,0,3.8877,3.8859,3.8861,3.8811,3.879,3.878,3.8725,3.8709,3.8675,3.8638,3.8616,3.8569,3.8528,3.852,3.8485,3.8494,3.8484,3.8453,3.8416,3.8461,3.8471,3.8475,3.8406,3.8405,3.8403,3.8402,0,0,3.897,3.8893,3.8895,3.8872,3.8815,3.8798,3.8785,3.8748,3.8736,3.8699,3.8686,3.8647,3.8618,3.8592,3.8552,3.8549,3.8582,3.8518,3.8515,3.8531,3.8588,3.8611,3.8618,3.8556,3.8557,3.8557,3.8592,0,3.9009,3.8985,3.8938,3.8928,3.891,3.8853,3.8842,3.8805,3.877,3.8747,3.8707,3.8681,3.8645,3.8629,3.8623,3.8579,3.8592,3.8576,3.8541,3.854,3.8555,3.8623,3.8647,3.8683,3.8595,3.8596,3.8597,0,3.9052,3.9022,3.9011,3.8957,3.8947,3.8938,3.89,3.888,3.8837,3.8811,3.8783,3.8741,3.8722,3.869,3.8663,3.8653,3.8635,3.8612,3.8612,3.8606,3.8571,3.8618,3.8692,3.8698,3.8602,3.8602,3.8601,0,3.912,3.9077,3.9065,3.9047,3.8983,3.8978,3.8951,3.8906,3.8887,3.8853,3.884,3.8804,3.8783,3.8755,3.8704,3.8685,3.8682,3.8645,3.8659,3.866,3.866,3.866,3.8732,3.865,3.865,3.865,3.865,0,3.9169,3.9164,3.9095,3.9087,3.908,3.9026,3.9019,3.8986,3.8948,3.8931,3.8879,3.8865,3.8798,3.8775,3.8734,3.8718,3.8709,3.8686,3.8676,3.8691,3.8694,3.8678,3.8674,3.8651,3.8651,3.8651,3.865,0,3.9244,3.9197,3.918,3.9122,3.9108,3.9105,3.9054,3.9044,3.9007,3.8987,3.8979,3.8919,3.889,3.8836,3.879,3.8763,3.8754,3.8736,3.877,3.8763,3.878,3.8779,3.8843,3.8849,3.8765,3.8765,3.8766,0,3.9277,3.9273,3.9216,3.9203,3.9179,3.9157,3.9138,3.9084,3.9066,3.9017,3.9013,3.898,3.895,3.8905,3.8856,3.8821,3.8801,3.8826,3.8795,3.8811,3.8801,3.8802,3.88,3.8833,3.8834,3.8835,3.8836,0,3.9343,3.932,3.9296,3.9264,3.9244,3.9215,3.9184,3.9176,3.9114,3.9096,3.9067,3.9044,3.8999,3.8966,3.8925,3.8894,3.8854,3.8846,3.8847,3.8863,3.8883,3.8872,3.8789,3.8845,3.8844,3.8843,3.8843,3.8842,3.9397,3.9391,3.935,3.9325,3.9297,3.9269,3.9257,3.9219,3.9195,3.9156,3.9125,3.9098,3.9054,3.8994,3.8966,3.8943,3.8924,3.8926,3.8926,3.8928,3.8934,3.8888,3.8935,3.8935,3.8934,3.8934,3.8934,0,3.9459,3.9431,3.9409,3.9368,3.9348,3.9316,3.928,3.9264,3.9243,3.9207,3.918,3.9146,3.9115,3.9064,3.9028,3.9019,3.9,3.9011,3.9011,3.9005,3.8953,3.8955,3.9028,3.9028,3.9028,3.9028,3.9028,3.9028,3.9489,3.9477,3.945,3.9423,3.9394,3.937,3.9352,3.9325,3.9296,3.9262,3.9237,3.9206,3.9163,3.9124,3.9093,3.9079,3.9067,3.9085,3.9065,3.9017,3.9008,3.9,3.9002,3.9083,3.9083,3.9118,3.9119,3.9119]}]]